Regional Weather Roundup
Issued by NWS

Home | Current Version | Previous Version | Graphics & Text | Print | Product List | Glossary On
Versions: 1 2 3 4 5 6 7 8 9 10 11 12 13 14 15 16 17 18 19 20 21 22 23 24 25 26 27 28 29 30 31 32 33 34 35 36 37 38 39 40 41 42 43 44 45 46 47 48 49 50
000
ASUS45 KSLC 210310
RWRUT

UTAH REGIONAL WEATHER ROUNDUP
NATIONAL WEATHER SERVICE SALT LAKE CITY UT
900 PM MDT MON APR 20 2015

UTZ001>011-023>025-210400-

NORTHERN UTAH

CITY           SKY/WX    TMP DP  RH WIND       PRES   REMARKS
BRIGHAM CITY   PTCLDY    60  35  39 E5        29.88R
HILL AFB       CLEAR     59  24  26 CALM      29.89R
LOGAN          CLEAR     58  34  40 NE3       29.87R
OGDEN          PTCLDY    60  25  26 SW3       29.87R
PROVO AIRPORT  CLEAR     55  36  47 VRB6      29.88R
SALT LAKE CITY CLEAR     59  30  33 CALM      29.87R
VERNAL         CLEAR     51  29  42 NW3       29.88R
WENDOVER       CLEAR     63  19  19 CALM      29.86S
HEBER CITY     CLEAR     45  25  45 E7        29.91R THUNDER
WEST JORDAN    CLEAR     55  27  33 CALM      29.90R

$$

UTZ012>022-026-027-210400-

SOUTHERN/CENTRAL UTAH

CITY           SKY/WX    TMP DP  RH WIND       PRES   REMARKS
BLANDING       CLEAR     55  26  32 E3        29.99R
BRYCE CANYON   PTCLDY    42  15  33 W7        30.01R
CEDAR CITY     PTCLDY    57  16  20 S10       29.88R
DELTA          CLEAR     58   8  14 N7        29.87R
HANKSVILLE     CLEAR     61  27  27 CALM      29.85R
MILFORD        CLEAR     56  13  18 N7        29.86R
MOAB/CYNLANDS  CLEAR     61  29  29 E9        29.83R
PRICE          CLEAR     57  11  16 NW10      29.90R
ST GEORGE      CLEAR     75  16  10 S5        29.77R
KANAB          PTCLDY    54  21  28 CALM      29.91R

$$

REGIONAL REPORTS     COLORADO/ARIZONA

CITY           SKY/WX    TMP DP  RH WIND       PRES   REMARKS
CRAIG, CO      PTCLDY    43  33  68 CALM      29.95R
GRAND JUNCTION PTCLDY    56  32  40 CALM      29.89R
RIFLE          PTCLDY    50  33  52 SE10      29.94R
MONTROSE       CLEAR     52  36  54 S8        29.95R
CORTEZ         CLEAR     44  27  51 NE3       29.94R
PAGE, AZ       PTCLDY    72  11   9 W5        29.82R
GRAND CANYON   PTCLDY    42  16  34 CALM      30.00R
KINGMAN        CLEAR     64  14  14 S9        29.83R
FLAGSTAFF      PTCLDY    45  21  38 CALM      30.03R

$$

REGIONAL REPORTS    NEVADA/IDAHO/WYOMING

CITY           SKY/WX    TMP DP  RH WIND       PRES   REMARKS
LAS VEGAS, NV  PTCLDY    82  15   8 S10       29.68R
ELY            CLEAR     54   0  11 N3        29.93R
ELKO           CLEAR     59  20  22 CALM      29.88R
POCATELLO, ID  CLEAR     53  27  36 S8        29.87S
BURLEY         PTCLDY    51  30  44 SW6       29.85R
EVANSTON, WY   PTCLDY    48  22  35 W8        29.98R
ROCK SPRINGS   MOCLDY    48  16  27 NW7       29.92R
KEMMERER       CLEAR     45  23  42 W8        29.97R

$$


USA.gov is the U.S. government's official web portal to all federal, state and local government web resources and services.